| time (UTC) | temp F | wind direction | speed MPH | gust MPH | rain 1hr in | rain 24hr in | rain mn in | humidity % | barometer mb |
| 20260505025223 | 67 | 174 | 0.0 | 0.0 | 0.00 | 0.00 | 0.00 | 72 | 1008.2 |
| 20260505024720 | 67 | 131 | 0.0 | 0.0 | 0.00 | 0.00 | 0.00 | 71 | 1008.1 |
| 20260505024217 | 67 | 188 | 0.0 | 0.0 | 0.00 | 0.00 | 0.00 | 72 | 1008.0 |
| 20260505023715 | 66 | 140 | 0.0 | 0.0 | 0.00 | 0.00 | 0.00 | 71 | 1008.0 |
| 20260505023212 | 66 | 149 | 0.0 | 0.0 | 0.00 | 0.00 | 0.00 | 72 | 1007.9 |
| 20260505022709 | 67 | 188 | 0.0 | 0.0 | 0.00 | 0.00 | 0.00 | 71 | 1007.6 |
| 20260505022206 | 68 | 150 | 0.0 | 0.0 | 0.00 | 0.00 | 0.00 | 68 | 1007.6 |
| 20260505021703 | 69 | 162 | 0.0 | 0.0 | 0.00 | 0.00 | 0.00 | 68 | 1007.3 |
| 20260505021200 | 70 | 184 | 0.0 | 0.0 | 0.00 | 0.00 | 0.00 | 66 | 1007.3 |
| 20260505020655 | 69 | 150 | 1.0 | 1.0 | 0.00 | 0.00 | 0.00 | 65 | 1007.3 |
| 20260505020151 | 69 | 189 | 1.0 | 1.0 | 0.00 | 0.00 | 0.00 | 66 | 1007.3 |
| 20260505015649 | 69 | 61 | 1.0 | 2.0 | 0.00 | 0.00 | 0.00 | 65 | 1007.3 |
| 20260505015145 | 69 | 170 | 0.0 | 1.0 | 0.00 | 0.00 | 0.00 | 66 | 1007.3 |
| 20260505014642 | 69 | 194 | 2.0 | 2.0 | 0.00 | 0.00 | 0.00 | 66 | 1007.1 |
| 20260505014139 | 69 | 166 | 0.0 | 0.0 | 0.00 | 0.00 | 0.00 | 68 | 1007.0 |
| 20260505013636 | 69 | 185 | 0.0 | 0.0 | 0.00 | 0.00 | 0.00 | 68 | 1007.1 |
| 20260505013133 | 70 | 208 | 1.0 | 2.0 | 0.00 | 0.00 | 0.00 | 64 | 1007.2 |
| 20260505012632 | 69 | 187 | 0.0 | 0.0 | 0.00 | 0.00 | 0.00 | 67 | 1007.1 |
| 20260505012128 | 70 | 173 | 0.0 | 0.0 | 0.00 | 0.00 | 0.00 | 67 | 1007.2 |
| 20260505011624 | 71 | 199 | 0.0 | 0.0 | 0.00 | 0.00 | 0.00 | 64 | 1007.1 |
| 20260505011121 | 72 | 147 | 0.0 | 0.0 | 0.00 | 0.00 | 0.00 | 62 | 1007.1 |
| 20260505010617 | 71 | 160 | 0.0 | 0.0 | 0.00 | 0.00 | 0.00 | 62 | 1007.1 |
| 20260505010114 | 71 | 174 | 0.0 | 0.0 | 0.00 | 0.00 | 0.00 | 64 | 1006.9 |
| 20260505005610 | 72 | 175 | 0.0 | 0.0 | 0.00 | 0.00 | 0.00 | 61 | 1007.0 |
| 20260505005107 | 72 | 72 | 1.0 | 2.0 | 0.00 | 0.00 | 0.00 | 60 | 1006.7 |
| 20260505004604 | 73 | 194 | 0.0 | 0.0 | 0.00 | 0.00 | 0.00 | 60 | 1006.8 |
| 20260505004101 | 73 | 174 | 0.0 | 1.0 | 0.00 | 0.00 | 0.00 | 57 | 1006.9 |
| 20260505003558 | 74 | 177 | 0.0 | 0.0 | 0.00 | 0.00 | 0.00 | 59 | 1006.7 |
| 20260505003055 | 74 | 189 | 0.0 | 0.0 | 0.00 | 0.00 | 0.00 | 58 | 1006.7 |
| 20260505002550 | 74 | 230 | 0.0 | 0.0 | 0.00 | 0.00 | 0.00 | 57 | 1006.8 |
| 20260505002049 | 74 | 175 | 0.0 | 0.0 | 0.00 | 0.00 | 0.00 | 60 | 1006.7 |
| 20260505001546 | 75 | 185 | 0.0 | 0.0 | 0.00 | 0.00 | 0.00 | 54 | 1006.7 |
| 20260505001043 | 76 | 136 | 1.0 | 2.0 | 0.00 | 0.00 | 0.00 | 53 | 1007.0 |
| 20260505000541 | 76 | 183 | 1.0 | 1.0 | 0.00 | 0.00 | 0.00 | 55 | 1006.7 |
| 20260505000038 | 76 | 183 | 0.0 | 1.0 | 0.00 | 0.00 | 0.00 | 54 | 1006.7 |
| 20260504235535 | 77 | 172 | 1.0 | 1.0 | 0.00 | 0.00 | 0.00 | 54 | 1006.6 |
| 20260504235031 | 77 | 180 | 1.0 | 1.0 | 0.00 | 0.00 | 0.00 | 53 | 1006.6 |
| 20260504234528 | 78 | 194 | 1.0 | 1.0 | 0.00 | 0.00 | 0.00 | 56 | 1006.7 |
| 20260504234025 | 79 | 100 | 2.0 | 2.0 | 0.00 | 0.00 | 0.00 | 52 | 1006.5 |
| 20260504233520 | 80 | 230 | 0.0 | 1.0 | 0.00 | 0.00 | 0.00 | 49 | 1006.8 |
| 20260504233018 | 79 | 179 | 1.0 | 2.0 | 0.00 | 0.00 | 0.00 | 51 | 1006.8 |
| 20260504232514 | 79 | 189 | 0.0 | 1.0 | 0.00 | 0.00 | 0.00 | 50 | 1006.9 |
| 20260504232012 | 78 | 126 | 1.0 | 1.0 | 0.00 | 0.00 | 0.00 | 51 | 1006.7 |
| 20260504231509 | 78 | 220 | 2.0 | 2.0 | 0.00 | 0.00 | 0.00 | 54 | 1006.9 |
| 20260504231005 | 78 | 188 | 2.0 | 2.0 | 0.00 | 0.00 | 0.00 | 50 | 1006.9 |
| 20260504230501 | 79 | 156 | 2.0 | 2.0 | 0.00 | 0.00 | 0.00 | 52 | 1006.8 |
| 20260504230000 | 79 | 165 | 0.0 | 1.0 | 0.00 | 0.00 | 0.00 | 55 | 1006.7 |
| 20260504225457 | 79 | 160 | 1.0 | 1.0 | 0.00 | 0.00 | 0.00 | 51 | 1006.8 |
| 20260504224954 | 79 | 201 | 2.0 | 3.0 | 0.00 | 0.00 | 0.00 | 50 | 1006.7 |
| 20260504224450 | 79 | 128 | 3.0 | 5.0 | 0.00 | 0.00 | 0.00 | 50 | 1006.2 |
| 20260504223947 | 80 | 180 | 0.0 | 1.0 | 0.00 | 0.00 | 0.00 | 51 | 1006.7 |
| 20260504223444 | 80 | 184 | 0.0 | 0.0 | 0.00 | 0.00 | 0.00 | 51 | 1006.5 |
| 20260504222939 | 79 | 33 | 2.0 | 5.0 | 0.00 | 0.00 | 0.00 | 51 | 1006.6 |
| 20260504222437 | 79 | 141 | 0.0 | 2.0 | 0.00 | 0.00 | 0.00 | 52 | 1006.7 |
| 20260504221935 | 80 | 171 | 2.0 | 5.0 | 0.00 | 0.00 | 0.00 | 50 | 1006.6 |
| 20260504221431 | 80 | 234 | 0.0 | 1.0 | 0.00 | 0.00 | 0.00 | 51 | 1006.7 |
| 20260504220928 | 80 | 173 | 2.0 | 2.0 | 0.00 | 0.00 | 0.00 | 50 | 1006.6 |
| 20260504220425 | 80 | 170 | 2.0 | 3.0 | 0.00 | 0.00 | 0.00 | 49 | 1006.5 |
| 20260504215922 | 80 | 166 | 3.0 | 3.0 | 0.00 | 0.00 | 0.00 | 48 | 1006.6 |
| 20260504215419 | 80 | 201 | 2.0 | 2.0 | 0.00 | 0.00 | 0.00 | 51 | 1006.6 |
| 20260504214915 | 80 | 202 | 2.0 | 2.0 | 0.00 | 0.00 | 0.00 | 48 | 1006.8 |
| 20260504214412 | 81 | 187 | 1.0 | 2.0 | 0.00 | 0.00 | 0.00 | 50 | 1006.8 |
| 20260504213909 | 81 | 15 | 2.0 | 2.0 | 0.00 | 0.00 | 0.00 | 50 | 1006.9 |
| 20260504213404 | 80 | 192 | 3.0 | 5.0 | 0.00 | 0.00 | 0.00 | 48 | 1006.9 |
| 20260504212902 | 81 | 214 | 3.0 | 3.0 | 0.00 | 0.00 | 0.00 | 46 | 1006.8 |
| 20260504212358 | 82 | 7 | 3.0 | 3.0 | 0.00 | 0.00 | 0.00 | 47 | 1006.8 |
| 20260504211856 | 82 | 150 | 0.0 | 0.0 | 0.00 | 0.00 | 0.00 | 47 | 1006.9 |
| 20260504211351 | 82 | 128 | 3.0 | 6.0 | 0.00 | 0.00 | 0.00 | 45 | 1007.0 |
| 20260504210849 | 83 | 108 | 2.0 | 2.0 | 0.00 | 0.00 | 0.00 | 45 | 1007.0 |
| 20260504210346 | 83 | 192 | 2.0 | 2.0 | 0.00 | 0.00 | 0.00 | 47 | 1007.3 |
| 20260504205843 | 83 | 253 | 1.0 | 1.0 | 0.00 | 0.00 | 0.00 | 49 | 1007.4 |
| 20260504205341 | 84 | 197 | 1.0 | 2.0 | 0.00 | 0.00 | 0.00 | 49 | 1007.3 |
| 20260504204839 | 84 | 35 | 3.0 | 6.0 | 0.00 | 0.00 | 0.00 | 46 | 1007.3 |
| 20260504204337 | 83 | 148 | 0.0 | 1.0 | 0.00 | 0.00 | 0.00 | 47 | 1007.4 |
| 20260504203836 | 84 | 216 | 2.0 | 3.0 | 0.00 | 0.00 | 0.00 | 51 | 1007.5 |
| 20260504203333 | 84 | 38 | 3.0 | 5.0 | 0.00 | 0.00 | 0.00 | 45 | 1007.4 |
| 20260504202828 | 83 | 192 | 1.0 | 2.0 | 0.00 | 0.00 | 0.00 | 47 | 1007.5 |
| 20260504202326 | 82 | 191 | 1.0 | 1.0 | 0.00 | 0.00 | 0.00 | 49 | 1007.7 |
| 20260504201822 | 82 | 277 | 3.0 | 5.0 | 0.00 | 0.00 | 0.00 | 47 | 1007.8 |
| 20260504201320 | 82 | 171 | 1.0 | 2.0 | 0.00 | 0.00 | 0.00 | 46 | 1008.0 |
| 20260504200817 | 82 | 248 | 3.0 | 3.0 | 0.00 | 0.00 | 0.00 | 50 | 1007.9 |
| 20260504200314 | 82 | 181 | 0.0 | 0.0 | 0.00 | 0.00 | 0.00 | 48 | 1008.0 |
| 20260504195810 | 81 | 72 | 2.0 | 3.0 | 0.00 | 0.00 | 0.00 | 49 | 1008.2 |
| 20260504195306 | 82 | 137 | 0.0 | 1.0 | 0.00 | 0.00 | 0.00 | 48 | 1008.1 |
| 20260504194803 | 82 | 125 | 2.0 | 2.0 | 0.00 | 0.00 | 0.00 | 45 | 1008.2 |
| 20260504194259 | 84 | 215 | 2.0 | 2.0 | 0.00 | 0.00 | 0.00 | 49 | 1008.2 |
| 20260504193755 | 83 | 191 | 0.0 | 1.0 | 0.00 | 0.00 | 0.00 | 53 | 1008.2 |
| 20260504193252 | 82 | 222 | 2.0 | 2.0 | 0.00 | 0.00 | 0.00 | 46 | 1008.3 |
| 20260504192751 | 83 | 222 | 1.0 | 2.0 | 0.00 | 0.00 | 0.00 | 48 | 1008.4 |
| 20260504192248 | 83 | 229 | 3.0 | 5.0 | 0.00 | 0.00 | 0.00 | 52 | 1008.5 |
| 20260504191747 | 83 | 280 | 6.0 | 11.0 | 0.00 | 0.00 | 0.00 | 45 | 1008.4 |
| 20260504191243 | 84 | 189 | 2.0 | 2.0 | 0.00 | 0.00 | 0.00 | 45 | 1008.4 |
| 20260504190739 | 82 | 114 | 0.0 | 1.0 | 0.00 | 0.00 | 0.00 | 49 | 1008.4 |
| 20260504190236 | 82 | 184 | 1.0 | 2.0 | 0.00 | 0.00 | 0.00 | 49 | 1008.6 |
| 20260504185732 | 82 | 104 | 1.0 | 1.0 | 0.00 | 0.00 | 0.00 | 48 | 1008.5 |
| 20260504185229 | 81 | 190 | 2.0 | 3.0 | 0.00 | 0.00 | 0.00 | 47 | 1008.5 |
| 20260504184725 | 82 | 72 | 2.0 | 3.0 | 0.00 | 0.00 | 0.00 | 46 | 1008.5 |
| 20260504184221 | 82 | 294 | 3.0 | 5.0 | 0.00 | 0.00 | 0.00 | 52 | 1008.3 |
| 20260504183717 | 82 | 256 | 2.0 | 3.0 | 0.00 | 0.00 | 0.00 | 50 | 1008.5 |
| 20260504183214 | 81 | 141 | 2.0 | 2.0 | 0.00 | 0.00 | 0.00 | 49 | 1008.4 |
| 20260504182713 | 81 | 78 | 3.0 | 5.0 | 0.00 | 0.00 | 0.00 | 46 | 1008.4 |
| 20260504182209 | 81 | 213 | 4.0 | 7.0 | 0.00 | 0.00 | 0.00 | 46 | 1008.5 |
| 20260504181707 | 81 | 50 | 4.0 | 7.0 | 0.00 | 0.00 | 0.00 | 48 | 1008.4 |
| 20260504181204 | 80 | 197 | 4.0 | 5.0 | 0.00 | 0.00 | 0.00 | 49 | 1008.7 |
| 20260504180703 | 80 | 281 | 1.0 | 2.0 | 0.00 | 0.00 | 0.00 | 47 | 1008.6 |
| 20260504180201 | 81 | 193 | 5.0 | 8.0 | 0.00 | 0.00 | 0.00 | 49 | 1008.6 |
| 20260504175658 | 80 | 138 | 4.0 | 6.0 | 0.00 | 0.00 | 0.00 | 47 | 1008.8 |
| 20260504175155 | 80 | 136 | 1.0 | 2.0 | 0.00 | 0.00 | 0.00 | 51 | 1008.7 |
| 20260504174653 | 80 | 358 | 7.0 | 9.0 | 0.00 | 0.00 | 0.00 | 50 | 1008.9 |
| 20260504174150 | 80 | 187 | 1.0 | 1.0 | 0.00 | 0.00 | 0.00 | 48 | 1009.0 |
| 20260504173647 | 81 | 234 | 4.0 | 7.0 | 0.00 | 0.00 | 0.00 | 49 | 1009.0 |
| 20260504173144 | 79 | 203 | 1.0 | 2.0 | 0.00 | 0.00 | 0.00 | 50 | 1009.0 |
| 20260504172641 | 79 | 281 | 5.0 | 7.0 | 0.00 | 0.00 | 0.00 | 48 | 1009.0 |
| 20260504172137 | 79 | 218 | 3.0 | 5.0 | 0.00 | 0.00 | 0.00 | 48 | 1009.1 |
| 20260504171633 | 80 | 227 | 2.0 | 3.0 | 0.00 | 0.00 | 0.00 | 47 | 1009.3 |
| 20260504171131 | 80 | 207 | 6.0 | 7.0 | 0.00 | 0.00 | 0.00 | 47 | 1009.1 |
| 20260504170627 | 78 | 183 | 1.0 | 2.0 | 0.00 | 0.00 | 0.00 | 50 | 1009.4 |
| 20260504170125 | 79 | 7 | 4.0 | 6.0 | 0.00 | 0.00 | 0.00 | 49 | 1009.3 |
| 20260504151010 | 73 | 147 | 5.0 | 7.0 | 0.00 | 0.00 | 0.00 | 54 | 1010.2 |
| 20260504150508 | 73 | 188 | 1.0 | 1.0 | 0.00 | 0.00 | 0.00 | 55 | 1010.4 |
| 20260504140933 | 69 | 88 | 0.0 | 1.0 | 0.00 | 0.00 | 0.00 | 65 | 1010.8 |
| 20260504140430 | 68 | 176 | 0.0 | 1.0 | 0.00 | 0.00 | 0.00 | 66 | 1011.2 |
| 20260504130355 | 55 | 186 | 0.0 | 0.0 | 0.00 | 0.00 | 0.00 | 99 | 1011.3 |
| 20260504120318 | 49 | 187 | 0.0 | 0.0 | 0.00 | 0.00 | 0.00 | 99 | 1011.2 |
| 20260504110242 | 47 | 187 | 0.0 | 0.0 | 0.00 | 0.00 | 0.00 | 99 | 1010.9 |
| 20260504100205 | 48 | 185 | 0.0 | 0.0 | 0.00 | 0.00 | 0.00 | 99 | 1011.2 |
| 20260504090128 | 51 | 188 | 0.0 | 0.0 | 0.00 | 0.00 | 0.00 | 99 | 1011.5 |
| 20260504081558 | 52 | 187 | 0.0 | 0.0 | 0.00 | 0.00 | 0.00 | 98 | 1011.3 |
| 20260504081054 | 52 | 186 | 0.0 | 0.0 | 0.00 | 0.00 | 0.00 | 98 | 1011.3 |
| 20260504080551 | 53 | 186 | 0.0 | 0.0 | 0.00 | 0.00 | 0.00 | 97 | 1011.3 |
| 20260504050404 | 58 | 183 | 0.0 | 0.0 | 0.00 | 0.00 | 0.00 | 84 | 1012.7 |
| 20260504045901 | 59 | 187 | 0.0 | 0.0 | 0.00 | 0.00 | 0.00 | 82 | 1012.9 |
| 20260504045356 | 59 | 179 | 0.0 | 0.0 | 0.00 | 0.00 | 0.00 | 82 | 1013.1 |
| 20260504044853 | 59 | 170 | 0.0 | 0.0 | 0.00 | 0.00 | 0.00 | 81 | 1013.0 |
| 20260504044350 | 60 | 185 | 0.0 | 0.0 | 0.00 | 0.00 | 0.00 | 79 | 1013.0 |
| 20260504043848 | 61 | 188 | 1.0 | 1.0 | 0.00 | 0.00 | 0.00 | 78 | 1012.9 |
| 20260504043344 | 60 | 181 | 1.0 | 1.0 | 0.00 | 0.00 | 0.00 | 78 | 1013.0 |
| 20260504042842 | 59 | 187 | 0.0 | 0.0 | 0.00 | 0.00 | 0.00 | 81 | 1013.2 |
| 20260504042338 | 60 | 136 | 0.0 | 1.0 | 0.00 | 0.00 | 0.00 | 78 | 1013.2 |
| 20260504041834 | 59 | 187 | 0.0 | 0.0 | 0.00 | 0.00 | 0.00 | 83 | 1013.2 |
| 20260504041331 | 59 | 181 | 0.0 | 0.0 | 0.00 | 0.00 | 0.00 | 82 | 1013.3 |
| 20260504040827 | 59 | 186 | 0.0 | 0.0 | 0.00 | 0.00 | 0.00 | 82 | 1013.2 |
| 20260504040325 | 59 | 186 | 0.0 | 0.0 | 0.00 | 0.00 | 0.00 | 83 | 1013.4 |
| 20260504035820 | 59 | 175 | 1.0 | 1.0 | 0.00 | 0.00 | 0.00 | 81 | 1013.2 |
| 20260504035318 | 57 | 178 | 0.0 | 0.0 | 0.00 | 0.00 | 0.00 | 87 | 1013.4 |
| 20260504034815 | 55 | 181 | 0.0 | 0.0 | 0.00 | 0.00 | 0.00 | 90 | 1013.5 |
| 20260504034313 | 55 | 181 | 0.0 | 0.0 | 0.00 | 0.00 | 0.00 | 91 | 1013.7 |
| 20260504033809 | 54 | 182 | 0.0 | 0.0 | 0.00 | 0.00 | 0.00 | 93 | 1013.7 |
| 20260504033307 | 54 | 181 | 0.0 | 0.0 | 0.00 | 0.00 | 0.00 | 92 | 1013.5 |
| 20260504032804 | 54 | 190 | 0.0 | 0.0 | 0.00 | 0.00 | 0.00 | 93 | 1013.6 |
| 20260504032301 | 54 | 183 | 0.0 | 0.0 | 0.00 | 0.00 | 0.00 | 93 | 1013.8 |
| 20260504031757 | 54 | 194 | 0.0 | 0.0 | 0.00 | 0.00 | 0.00 | 93 | 1013.6 |
| 20260504031255 | 54 | 184 | 0.0 | 0.0 | 0.00 | 0.00 | 0.00 | 93 | 1013.6 |
| 20260504030750 | 54 | 185 | 0.0 | 0.0 | 0.00 | 0.00 | 0.00 | 92 | 1013.6 |
| 20260504030248 | 54 | 186 | 0.0 | 0.0 | 0.00 | 0.00 | 0.00 | 92 | 1013.8 |
| 20260504025744 | 54 | 185 | 0.0 | 0.0 | 0.00 | 0.00 | 0.00 | 92 | 1013.6 |
| 20260504025241 | 54 | 190 | 0.0 | 0.0 | 0.00 | 0.00 | 0.00 | 91 | 1013.7 |